• In Österreich
  • Länderverzeichnis
  • Für 7 Tage
  • Wassertemperatur
  • Satellitenkarten
  • Wetterkarte
  • News
  • Widgets
  • user-avatar
    Anmelden

    Stündliche Wetter Sarajevo

    Heute, 21 September, Freitag

    Zeit Temperatur Niederschläge Wind Luftdruck Luftfeuchtigkeit
    00:00 +16°C° 0.2 mm 1 m/S 690 mmHg 85%
    01:00 +16°C° 0.2 mm 1 m/S 690 mmHg 86%
    02:00 +16°C° 0.1 mm 1 m/S 690 mmHg 86%
    03:00 +16°C° 0.1 mm 1 m/S 690 mmHg 86%
    04:00 +16°C° 0.1 mm 1 m/S 690 mmHg 85%
    05:00 +16°C° 0 mm 1 m/S 690 mmHg 83%
    06:00 +18°C° 0 mm 1 m/S 690 mmHg 81%
    07:00 +19°C° 0 mm 1 m/S 690 mmHg 79%
    08:00 +21°C° 0 mm 1 m/S 691 mmHg 69%
    09:00 +23°C° 0 mm 1 m/S 691 mmHg 60%
    10:00 +25°C° 0 mm 1 m/S 691 mmHg 51%
    11:00 +25°C° 0 mm 2 m/S 691 mmHg 49%
    12:00 +26°C° 0 mm 2 m/S 691 mmHg 47%
    13:00 +26°C° 0 mm 2 m/S 691 mmHg 45%
    14:00 +26°C° 0 mm 2 m/S 691 mmHg 48%
    15:00 +25°C° 0 mm 2 m/S 690 mmHg 51%
    16:00 +24°C° 0 mm 2 m/S 690 mmHg 54%
    17:00 +22°C° 0 mm 1 m/S 690 mmHg 62%
    18:00 +20°C° 0 mm 1 m/S 689 mmHg 70%
    19:00 +18°C° 0 mm 1 m/S 689 mmHg 77%
    20:00 +18°C° 0 mm 1 m/S 689 mmHg 79%
    21:00 +16°C° 0 mm 1 m/S 689 mmHg 81%
    22:00 +16°C° 0 mm 1 m/S 690 mmHg 82%
    23:00 +15°C° 0 mm 1 m/S 690 mmHg 81%

    Morgen, 22 September, Samstag

    Zeit Temperatur Niederschläge Wind Luftdruck Luftfeuchtigkeit
    00:00 +15°C° 0 mm 1 m/S 690 mmHg 80%
    01:00 +15°C° 0 mm 1 m/S 690 mmHg 79%
    02:00 +15°C° 0 mm 1 m/S 690 mmHg 78%
    03:00 +14°C° 0 mm 1 m/S 690 mmHg 77%
    04:00 +14°C° 0 mm 1 m/S 690 mmHg 76%
    05:00 +15°C° 0 mm 1 m/S 690 mmHg 74%
    06:00 +16°C° 0 mm 1 m/S 690 mmHg 71%
    07:00 +18°C° 0 mm 1 m/S 691 mmHg 69%
    08:00 +20°C° 0 mm 1 m/S 692 mmHg 63%
    09:00 +22°C° 0 mm 1 m/S 692 mmHg 57%
    10:00 +25°C° 0 mm 1 m/S 693 mmHg 51%
    11:00 +25°C° 0 mm 1 m/S 693 mmHg 51%
    12:00 +25°C° 0 mm 2 m/S 693 mmHg 52%
    13:00 +26°C° 0 mm 2 m/S 693 mmHg 52%
    14:00 +24°C° 0.1 mm 2 m/S 693 mmHg 57%
    15:00 +23°C° 0.1 mm 2 m/S 692 mmHg 62%
    16:00 +21°C° 0.1 mm 2 m/S 692 mmHg 66%
    17:00 +19°C° 0 mm 2 m/S 692 mmHg 70%
    18:00 +18°C° 0 mm 2 m/S 693 mmHg 74%
    19:00 +16°C° 0 mm 2 m/S 693 mmHg 78%
    20:00 +15°C° 0 mm 2 m/S 693 mmHg 78%
    21:00 +14°C° 0 mm 2 m/S 693 mmHg 79%
    22:00 +12°C° 0 mm 2 m/S 693 mmHg 79%
    23:00 +12°C° 0 mm 2 m/S 693 mmHg 79%

    übermorgen, 23 September, Sonntag

    Zeit Temperatur Niederschläge Wind Luftdruck Luftfeuchtigkeit
    00:00 +12°C° 0 mm 2 m/S 693 mmHg 79%
    01:00 +11°C° 0 mm 1 m/S 693 mmHg 79%
    02:00 +11°C° 0 mm 1 m/S 693 mmHg 79%
    03:00 +11°C° 0 mm 1 m/S 693 mmHg 79%
    04:00 +11°C° 0 mm 1 m/S 693 mmHg 79%
    05:00 +11°C° 0 mm 1 m/S 693 mmHg 76%
    06:00 +12°C° 0 mm 1 m/S 693 mmHg 74%
    07:00 +13°C° 0 mm 1 m/S 693 mmHg 71%
    08:00 +16°C° 0 mm 1 m/S 694 mmHg 65%
    09:00 +19°C° 0 mm 1 m/S 695 mmHg 58%
    10:00 +22°C° 0 mm 1 m/S 695 mmHg 51%
    11:00 +24°C° 0 mm 1 m/S 695 mmHg 48%
    12:00 +25°C° 0 mm 1 m/S 695 mmHg 46%
    13:00 +27°C° 0 mm 1 m/S 695 mmHg 44%
    14:00 +26°C° 0 mm 1 m/S 695 mmHg 46%
    15:00 +26°C° 0 mm 1 m/S 695 mmHg 49%
    16:00 +25°C° 0 mm 1 m/S 694 mmHg 51%
    17:00 +23°C° 0 mm 1 m/S 694 mmHg 59%
    18:00 +20°C° 0 mm 1 m/S 693 mmHg 68%
    19:00 +16°C° 0 mm 0 m/S 693 mmHg 76%
    20:00 +18°C° 0 mm 1 m/S 693 mmHg 77%
    21:00 +18°C° 0 mm 1 m/S 693 mmHg 78%
    22:00 +16°C° 0 mm 1 m/S 693 mmHg 79%
    23:00 +16°C° 0 mm 1 m/S 692 mmHg 80%

    24 September, Montag

    Zeit Temperatur Niederschläge Wind Luftdruck Luftfeuchtigkeit
    00:00 +16°C° 0 mm 1 m/S 692 mmHg 81%
    01:00 +16°C° 0 mm 1 m/S 691 mmHg 82%
    02:00 +16°C° 0 mm 2 m/S 690 mmHg 83%
    03:00 +15°C° 0 mm 2 m/S 690 mmHg 84%
    04:00 +15°C° 0 mm 2 m/S 689 mmHg 85%
    05:00 +16°C° 0 mm 2 m/S 689 mmHg 82%
    06:00 +17°C° 0 mm 2 m/S 689 mmHg 80%
    07:00 +17°C° 0 mm 3 m/S 689 mmHg 77%
    08:00 +19°C° 0 mm 3 m/S 689 mmHg 71%
    09:00 +21°C° 0 mm 4 m/S 689 mmHg 65%
    10:00 +23°C° 0 mm 5 m/S 690 mmHg 58%
    11:00 +25°C° 0 mm 4 m/S 690 mmHg 58%
    12:00 +25°C° 0 mm 4 m/S 690 mmHg 57%
    13:00 +25°C° 0 mm 4 m/S 690 mmHg 57%
    14:00 +23°C° 0.2 mm 4 m/S 690 mmHg 61%
    15:00 +22°C° 0.2 mm 3 m/S 691 mmHg 64%
    16:00 +21°C° 0.2 mm 3 m/S 691 mmHg 68%
    17:00 +18°C° 0.4 mm 3 m/S 691 mmHg 74%
    18:00 +14°C° 0.4 mm 3 m/S 692 mmHg 80%
    19:00 +11°C° 0.4 mm 3 m/S 692 mmHg 85%
    20:00 +11°C° 0.1 mm 4 m/S 693 mmHg 84%
    21:00 +10°C° 0.1 mm 4 m/S 693 mmHg 82%
    22:00 +8°C° 0.1 mm 5 m/S 693 mmHg 80%
    23:00 +8°C° 0.3 mm 5 m/S 693 mmHg 80%

    25 September, Dienstag

    Zeit Temperatur Niederschläge Wind Luftdruck Luftfeuchtigkeit
    00:00 +7°C° 0.3 mm 4 m/S 693 mmHg 81%
    01:00 +7°C° 0.3 mm 4 m/S 693 mmHg 81%
    02:00 +6°C° 0.9 mm 4 m/S 693 mmHg 82%
    03:00 +5°C° 0.9 mm 4 m/S 694 mmHg 84%
    04:00 +5°C° 0.9 mm 4 m/S 694 mmHg 85%
    05:00 +5°C° 0.1 mm 4 m/S 694 mmHg 83%
    06:00 +5°C° 0.1 mm 4 m/S 695 mmHg 82%
    07:00 +5°C° 0.1 mm 4 m/S 695 mmHg 81%
    08:00 +6°C° 0 mm 4 m/S 695 mmHg 74%
    09:00 +7°C° 0 mm 5 m/S 696 mmHg 67%
    10:00 +8°C° 0 mm 5 m/S 696 mmHg 60%
    11:00 +8°C° 0 mm 5 m/S 696 mmHg 55%
    12:00 +9°C° 0 mm 6 m/S 696 mmHg 51%
    13:00 +10°C° 0 mm 6 m/S 696 mmHg 46%
    14:00 +10°C° 0 mm 6 m/S 696 mmHg 45%
    15:00 +9°C° 0 mm 6 m/S 696 mmHg 44%
    16:00 +9°C° 0 mm 6 m/S 696 mmHg 42%
    17:00 +7°C° 0 mm 5 m/S 696 mmHg 45%
    18:00 +6°C° 0 mm 4 m/S 696 mmHg 48%
    19:00 +4°C° 0 mm 3 m/S 696 mmHg 52%
    20:00 +3°C° 0 mm 3 m/S 696 mmHg 53%
    21:00 +2°C° 0 mm 3 m/S 696 mmHg 55%
    22:00 +2°C° 0 mm 3 m/S 697 mmHg 56%
    23:00 +2°C° 0 mm 2 m/S 696 mmHg 59%

    26 September, Mittwoch

    Zeit Temperatur Niederschläge Wind Luftdruck Luftfeuchtigkeit
    00:00 +2°C° 0 mm 2 m/S 696 mmHg 61%
    01:00 +1°C° 0 mm 2 m/S 696 mmHg 63%
    02:00 +1°C° 0 mm 2 m/S 696 mmHg 63%
    03:00 +1°C° 0 mm 2 m/S 696 mmHg 62%
    04:00 +1°C° 0 mm 2 m/S 695 mmHg 62%
    05:00 +2°C° 0 mm 2 m/S 696 mmHg 58%
    06:00 +3°C° 0 mm 2 m/S 696 mmHg 54%
    07:00 +5°C° 0 mm 2 m/S 696 mmHg 49%
    08:00 +7°C° 0 mm 3 m/S 696 mmHg 44%
    09:00 +9°C° 0 mm 3 m/S 696 mmHg 39%
    10:00 +12°C° 0 mm 4 m/S 697 mmHg 35%
    11:00 +12°C° 0 mm 5 m/S 697 mmHg 37%
    12:00 +13°C° 0 mm 5 m/S 696 mmHg 39%
    13:00 +13°C° 0 mm 6 m/S 696 mmHg 41%
    14:00 +11°C° 0 mm 6 m/S 696 mmHg 43%
    15:00 +10°C° 0 mm 6 m/S 696 mmHg 46%
    16:00 +9°C° 0 mm 6 m/S 696 mmHg 48%
    17:00 +7°C° 0 mm 5 m/S 696 mmHg 56%
    18:00 +6°C° 0 mm 4 m/S 696 mmHg 65%
    19:00 +5°C° 0 mm 2 m/S 696 mmHg 73%
    20:00 +4°C° 0 mm 2 m/S 696 mmHg 74%
    21:00 +4°C° 0 mm 2 m/S 696 mmHg 75%
    22:00 +3°C° 0 mm 2 m/S 696 mmHg 76%
    23:00 +3°C° 0 mm 2 m/S 696 mmHg 76%
    Mehr zeigen